Location: La Sioule Rivi�re
(46.3664°N, 3.3197°E)
Time: 13:08:34
(UTC+00:00)

Cosmos 1315 Rocket - Pass Details

Date: 29 October 2020
Orbit: 530 x 567 km, 81.2° (Epoch: 23 November)

Event Time Altitude Azimuth Distance (km) Brightness Sun altitude
Rises 17:40:11 0° 164° (SSE) 2,677 6.2 -11.6°
Reaches altitude 10° 17:42:29 10° 154° (SSE) 1,797 5.3 -12.0°
Maximum altitude 17:45:58 30° 92° (E) 995 3.6 -12.6°
Drops below altitude 10° 17:49:29 10° 31° (NNE) 1,830 5.1 -13.2°
Sets 17:51:51 0° 21° (NNE) 2,736 6.1 -13.6°
